Schneifelwetter: Wetterstation Hallschlag, 537 m . NN
Wetterdaten: Freitag, 16.07.2010
Datum Zeit Temp. A. Feuchte A. Luftdruck Regen Wind Richtung Richtung Sonnenschein Helligkeit T Regen Taupunkt Windchill
16.07.2010 00:15 10,1 C 73 % 1015 hPa 0,0 l/m 0,0 km/h (0 Bft) S-SW 205 0 min 0 lux 0,00 min 5,5 C 10,1 C
16.07.2010 00:30 9,8 C 77 % 1015 hPa 0,0 l/m 0,0 km/h (0 Bft) S-SW 205 0 min 0 lux 0,00 min 6,0 C 9,8 C
16.07.2010 00:45 9,7 C 76 % 1015 hPa 0,0 l/m 0,0 km/h (0 Bft) S-SW 205 0 min 0 lux 0,00 min 5,7 C 9,7 C
16.07.2010 01:00 9,3 C 76 % 1015 hPa 0,0 l/m 0,0 km/h (0 Bft) S-SW 205 0 min 0 lux 0,00 min 5,3 C 9,3 C
16.07.2010 01:15 8,8 C 77 % 1015 hPa 0,0 l/m 0,0 km/h (0 Bft) S-SW 205 0 min 0 lux 0,00 min 5,0 C 8,8 C
16.07.2010 01:29 8,5 C 78 % 1015 hPa 0,0 l/m 0,0 km/h (0 Bft) S-SW 205 0 min 0 lux 0,00 min 4,9 C 8,5 C
16.07.2010 01:45 8,3 C 80 % 1015 hPa 0,0 l/m 0,0 km/h (0 Bft) S-SW 205 0 min 0 lux 0,00 min 5,1 C 8,3 C
16.07.2010 02:00 8,0 C 80 % 1015 hPa 0,0 l/m 0,0 km/h (0 Bft) S-SW 205 0 min 0 lux 0,00 min 4,8 C 8,0 C
16.07.2010 02:15 7,8 C 81 % 1015 hPa 0,0 l/m 0,0 km/h (0 Bft) S-SW 205 0 min 0 lux 0,00 min 4,7 C 7,8 C
16.07.2010 02:30 7,6 C 82 % 1015 hPa 0,0 l/m 0,0 km/h (0 Bft) S-SW 205 0 min 0 lux 0,00 min 4,7 C 7,6 C
16.07.2010 02:45 7,4 C 83 % 1015 hPa 0,0 l/m 0,0 km/h (0 Bft) S-SW 205 0 min 0 lux 0,00 min 4,7 C 7,4 C
16.07.2010 03:00 7,3 C 83 % 1015 hPa 0,0 l/m 0,0 km/h (0 Bft) S-SW 205 0 min 0 lux 0,00 min 4,6 C 7,3 C
16.07.2010 03:14 7,2 C 84 % 1015 hPa 0,0 l/m 0,0 km/h (0 Bft) S-SW 205 0 min 0 lux 0,00 min 4,7 C 7,2 C
16.07.2010 03:30 7,0 C 85 % 1015 hPa 0,0 l/m 0,0 km/h (0 Bft) S-SW 205 0 min 0 lux 0,00 min 4,7 C 7,0 C
16.07.2010 03:45 6,8 C 85 % 1015 hPa 0,0 l/m 0,0 km/h (0 Bft) S-SW 205 0 min 0 lux 0,00 min 4,5 C 6,8 C
16.07.2010 04:00 6,7 C 85 % 1015 hPa 0,0 l/m 0,0 km/h (0 Bft) S-SW 205 0 min 0 lux 0,00 min 4,4 C 6,7 C
16.07.2010 04:15 6,6 C 86 % 1015 hPa 0,0 l/m 0,0 km/h (0 Bft) S-SW 205 0 min 0 lux 0,00 min 4,4 C 6,6 C
16.07.2010 04:30 6,4 C 86 % 1015 hPa 0,0 l/m 0,0 km/h (0 Bft) S-SW 205 0 min 0 lux 0,00 min 4,2 C 6,4 C
16.07.2010 04:45 6,4 C 86 % 1015 hPa 0,0 l/m 0,0 km/h (0 Bft) S-SW 205 0 min 0 lux 0,00 min 4,2 C 6,4 C
16.07.2010 04:59 6,3 C 87 % 1015 hPa 0,0 l/m 0,0 km/h (0 Bft) S-SW 205 0 min 0 lux 0,00 min 4,3 C 6,3 C
16.07.2010 05:15 6,2 C 88 % 1015 hPa 0,0 l/m 0,0 km/h (0 Bft) S-SW 205 0 min 49 lux 0,00 min 4,4 C 6,2 C
16.07.2010 05:30 6,2 C 88 % 1015 hPa 0,0 l/m 0,0 km/h (0 Bft) S-SW 205 0 min 249 lux 0,00 min 4,4 C 6,2 C
16.07.2010 05:45 6,4 C 88 % 1015 hPa 0,0 l/m 0,0 km/h (0 Bft) S-SW 205 0 min 704 lux 0,00 min 4,6 C 6,4 C
16.07.2010 06:00 6,5 C 89 % 1015 hPa 0,0 l/m 0,0 km/h (0 Bft) S-SW 205 0 min 2,42 klux 0,00 min 4,8 C 6,5 C
16.07.2010 06:15 7,1 C 90 % 1015 hPa 0,0 l/m 0,0 km/h (0 Bft) S-SW 205 0 min 6,59 klux 0,00 min 5,6 C 7,1 C
16.07.2010 06:30 7,4 C 89 % 1015 hPa 0,0 l/m 0,0 km/h (0 Bft) S-SW 205 0 min 10,5 klux 0,00 min 5,7 C 7,4 C
16.07.2010 06:44 8,2 C 89 % 1015 hPa 0,0 l/m 0,0 km/h (0 Bft) S-SW 205 0 min 14,5 klux 0,00 min 6,5 C 8,2 C
16.07.2010 07:00 9,3 C 90 % 1015 hPa 0,0 l/m 7,3 km/h (2 Bft) SW22.5 230 0 min 19,8 klux 0,00 min 7,7 C 8,6 C
16.07.2010 07:15 10,6 C 89 % 1015 hPa 0,0 l/m 8,1 km/h (2 Bft) SW 215 0 min 23,7 klux 0,00 min 8,9 C 9,4 C
16.07.2010 07:30 13,2 C 82 % 1015 hPa 0,0 l/m 13,1 km/h (3 Bft) S45 190 0 min 28,3 klux 0,00 min 10,2 C 9,7 C
16.07.2010 07:45 14,3 C 77 % 1015 hPa 0,0 l/m 18,7 km/h (3 Bft) S22.5 185 0 min 31,1 klux 0,00 min 10,3 C 9,2 C
16.07.2010 08:00 15,7 C 71 % 1015 hPa 0,0 l/m 18,8 km/h (3 Bft) S-SW22.5 205 0 min 34,6 klux 0,00 min 10,5 C 11,0 C
16.07.2010 08:15 16,8 C 67 % 1015 hPa 0,0 l/m 25,3 km/h (4 Bft) S-SW45 195 0 min 38,2 klux 0,00 min 10,6 C 11,0 C
16.07.2010 08:30 17,8 C 64 % 1015 hPa 0,0 l/m 25,6 km/h (4 Bft) S-SW45 205 0 min 41,6 klux 0,00 min 10,9 C 12,3 C
16.07.2010 08:45 18,7 C 61 % 1015 hPa 0,0 l/m 23,5 km/h (4 Bft) SW67.5 215 0 min 45,4 klux 0,00 min 11,0 C 13,9 C
16.07.2010 09:00 19,3 C 59 % 1015 hPa 0,0 l/m 21,3 km/h (4 Bft) S-SW45 200 0 min 48,1 klux 0,00 min 11,1 C 15,1 C
16.07.2010 09:15 20,2 C 57 % 1015 hPa 0,0 l/m 30,0 km/h (5 Bft) S-SW67.5 195 0 min 51,4 klux 0,00 min 11,4 C 15,0 C
16.07.2010 09:30 20,6 C 57 % 1015 hPa 0,0 l/m 35,8 km/h (5 Bft) S-SW45 200 15 min 54,9 klux 0,00 min 11,8 C 15,0 C
16.07.2010 09:44 21,0 C 54 % 1015 hPa 0,0 l/m 29,5 km/h (5 Bft) S-SW45 200 14 min 58,1 klux 0,00 min 11,3 C 16,2 C
16.07.2010 10:00 21,7 C 54 % 1015 hPa 0,0 l/m 30,6 km/h (5 Bft) SW45 215 16 min 60,7 klux 0,00 min 12,0 C 17,0 C
16.07.2010 10:15 22,3 C 52 % 1015 hPa 0,0 l/m 26,6 km/h (4 Bft) S-SW45 195 15 min 63,9 klux 0,00 min 12,0 C 18,3 C
16.07.2010 10:30 23,0 C 51 % 1015 hPa 0,0 l/m 29,0 km/h (5 Bft) SW45 220 15 min 66,8 klux 0,00 min 12,3 C 19,0 C
16.07.2010 10:45 23,7 C 49 % 1015 hPa 0,0 l/m 27,0 km/h (4 Bft) S-SW45 205 15 min 69,1 klux 0,00 min 12,3 C 20,2 C
16.07.2010 11:00 24,2 C 46 % 1015 hPa 0,0 l/m 24,9 km/h (4 Bft) W-SW45 240 15 min 71,7 klux 0,00 min 11,8 C 21,1 C
16.07.2010 11:15 24,4 C 46 % 1015 hPa 0,0 l/m 32,9 km/h (5 Bft) SW45 235 15 min 74,2 klux 0,00 min 12,0 C 20,7 C
16.07.2010 11:30 24,7 C 46 % 1015 hPa 0,0 l/m 34,8 km/h (5 Bft) W-SW45 245 15 min 77,0 klux 0,00 min 12,3 C 21,0 C
16.07.2010 11:45 24,7 C 44 % 1015 hPa 0,0 l/m 36,8 km/h (5 Bft) SW67.5 235 15 min 78,8 klux 0,00 min 11,6 C 20,9 C
16.07.2010 12:00 24,7 C 47 % 1015 hPa 0,0 l/m 38,9 km/h (6 Bft) SW45 235 15 min 80,4 klux 0,00 min 12,6 C 20,8 C
16.07.2010 12:15 24,5 C 47 % 1015 hPa 0,0 l/m 36,1 km/h (5 Bft) W-SW45 240 15 min 82,1 klux 0,00 min 12,4 C 20,6 C
16.07.2010 12:30 24,5 C 46 % 1015 hPa 0,0 l/m 40,4 km/h (6 Bft) W-SW45 250 15 min 83,2 klux 0,00 min 12,1 C 20,4 C
16.07.2010 12:45 24,6 C 46 % 1015 hPa 0,0 l/m 36,1 km/h (5 Bft) W-SW45 245 15 min 84,2 klux 0,00 min 12,2 C 20,8 C
16.07.2010 12:59 24,8 C 48 % 1015 hPa 0,0 l/m 27,0 km/h (4 Bft) SW45 215 14 min 85,3 klux 0,00 min 13,0 C 21,7 C
16.07.2010 13:15 25,1 C 46 % 1015 hPa 0,0 l/m 29,8 km/h (5 Bft) S-SW67.5 205 16 min 86,3 klux 0,00 min 12,7 C 21,9 C
16.07.2010 13:30 25,3 C 44 % 1015 hPa 0,0 l/m 25,8 km/h (4 Bft) S-SO45 160 15 min 86,5 klux 0,00 min 12,2 C 22,5 C
16.07.2010 13:45 25,7 C 42 % 1015 hPa 0,0 l/m 32,7 km/h (5 Bft) SW67.5 215 15 min 86,8 klux 0,00 min 11,8 C 22,6 C
16.07.2010 14:00 25,5 C 42 % 1015 hPa 0,0 l/m 28,0 km/h (4 Bft) S-SW45 205 15 min 86,7 klux 0,00 min 11,6 C 22,6 C
16.07.2010 14:15 25,8 C 43 % 1015 hPa 0,0 l/m 31,3 km/h (5 Bft) S-SW67.5 200 15 min 86,3 klux 0,00 min 12,3 C 22,8 C
16.07.2010 14:30 26,0 C 41 % 1015 hPa 0,0 l/m 31,7 km/h (5 Bft) S-SW22.5 200 15 min 85,7 klux 0,00 min 11,7 C 23,0 C
16.07.2010 14:45 26,0 C 42 % 1015 hPa 0,0 l/m 23,6 km/h (4 Bft) S-SW67.5 210 15 min 84,6 klux 0,00 min 12,1 C 23,6 C
16.07.2010 15:00 26,2 C 42 % 1015 hPa 0,0 l/m 40,1 km/h (6 Bft) W-SW45 250 15 min 84,0 klux 0,00 min 12,3 C 22,9 C
16.07.2010 15:15 26,2 C 43 % 1015 hPa 0,0 l/m 40,1 km/h (6 Bft) W22.5 260 15 min 83,2 klux 0,00 min 12,6 C 22,9 C
16.07.2010 15:30 26,7 C 43 % 1015 hPa 0,0 l/m 30,7 km/h (5 Bft) SW45 230 15 min 82,6 klux 0,00 min 13,1 C 24,1 C
16.07.2010 15:45 26,5 C 42 % 1015 hPa 0,0 l/m 30,3 km/h (5 Bft) SW45 235 15 min 85,6 klux 0,00 min 12,5 C 23,8 C
16.07.2010 16:00 26,6 C 43 % 1015 hPa 0,0 l/m 33,4 km/h (5 Bft) SW67.5 230 15 min 83,5 klux 0,00 min 13,0 C 23,8 C
16.07.2010 16:15 26,8 C 42 % 1015 hPa 0,0 l/m 26,2 km/h (4 Bft) W-SW67.5 240 15 min 81,7 klux 0,00 min 12,8 C 24,5 C
16.07.2010 16:30 26,7 C 42 % 1015 hPa 0,0 l/m 31,5 km/h (5 Bft) SW67.5 235 15 min 88,4 klux 0,00 min 12,7 C 24,1 C
16.07.2010 16:45 27,2 C 42 % 1015 hPa 0,0 l/m 30,9 km/h (5 Bft) S45 190 15 min 86,1 klux 0,00 min 13,2 C 24,8 C
16.07.2010 17:00 26,7 C 42 % 1015 hPa 0,0 l/m 33,0 km/h (5 Bft) SW67.5 235 15 min 78,6 klux 0,00 min 12,7 C 24,0 C
16.07.2010 17:15 26,3 C 43 % 1015 hPa 0,0 l/m 34,9 km/h (5 Bft) SW45 225 0 min 29,7 klux 0,00 min 12,7 C 23,3 C
16.07.2010 17:30 25,9 C 45 % 1015 hPa 0,0 l/m 22,5 km/h (4 Bft) W-SW45 255 15 min 72,4 klux 0,00 min 13,0 C 23,6 C
16.07.2010 17:45 26,4 C 44 % 1015 hPa 0,0 l/m 27,4 km/h (4 Bft) W-SW45 250 15 min 67,9 klux 0,00 min 13,1 C 23,9 C
16.07.2010 17:59 26,8 C 44 % 1015 hPa 0,0 l/m 25,5 km/h (4 Bft) SW67.5 225 14 min 57,9 klux 0,00 min 13,5 C 24,6 C
16.07.2010 18:15 26,6 C 43 % 1015 hPa 0,0 l/m 33,9 km/h (5 Bft) W45 260 16 min 60,1 klux 0,00 min 13,0 C 23,8 C
16.07.2010 18:30 26,0 C 45 % 1015 hPa 0,0 l/m 32,1 km/h (5 Bft) W45 260 0 min 45,0 klux 0,00 min 13,1 C 23,0 C
16.07.2010 18:45 25,7 C 46 % 1015 hPa 0,0 l/m 28,9 km/h (5 Bft) SW67.5 235 15 min 56,5 klux 0,00 min 13,2 C 22,8 C
16.07.2010 19:00 25,4 C 46 % 1015 hPa 0,0 l/m 30,8 km/h (5 Bft) W-SW45 240 15 min 53,7 klux 0,00 min 12,9 C 22,3 C
16.07.2010 19:15 24,7 C 48 % 1015 hPa 0,0 l/m 21,8 km/h (4 Bft) W-SW45 240 0 min 28,6 klux 0,00 min 12,9 C 22,1 C
16.07.2010 19:30 25,4 C 48 % 1015 hPa 0,0 l/m 24,0 km/h (4 Bft) SW45 225 0 min 42,2 klux 0,00 min 13,6 C 22,8 C
16.07.2010 19:45 25,6 C 47 % 1015 hPa 0,0 l/m 15,6 km/h (3 Bft) SW45 235 0 min 33,7 klux 0,00 min 13,4 C 24,0 C
16.07.2010 20:00 25,2 C 47 % 1015 hPa 0,0 l/m 20,9 km/h (4 Bft) W-SW45 240 0 min 30,5 klux 0,00 min 13,1 C 22,8 C
16.07.2010 20:15 24,5 C 48 % 1015 hPa 0,0 l/m 22,1 km/h (4 Bft) SW45 235 0 min 17,5 klux 0,00 min 12,8 C 21,8 C
16.07.2010 20:30 24,0 C 50 % 1015 hPa 0,0 l/m 16,1 km/h (3 Bft) SW22.5 225 0 min 10,3 klux 0,00 min 12,9 C 21,9 C
16.07.2010 20:45 23,5 C 51 % 1015 hPa 0,0 l/m 14,1 km/h (3 Bft) SW45 225 0 min 6,86 klux 0,00 min 12,8 C 21,7 C
16.07.2010 21:00 22,8 C 54 % 1016 hPa 0,0 l/m 7,0 km/h (2 Bft) W-SW22.5 245 0 min 3,31 klux 0,00 min 13,0 C 22,6 C
16.07.2010 21:14 22,0 C 56 % 1016 hPa 0,0 l/m 8,5 km/h (2 Bft) W-SW22.5 245 0 min 2,57 klux 0,00 min 12,8 C 21,3 C
16.07.2010 21:30 21,3 C 57 % 1015 hPa 0,0 l/m 7,6 km/h (2 Bft) W-SW 250 0 min 931 lux 0,00 min 12,4 C 20,9 C
16.07.2010 21:45 20,7 C 58 % 1016 hPa 0,0 l/m 5,7 km/h (1 Bft) W-SW 250 0 min 485 lux 0,00 min 12,1 C 20,7 C
16.07.2010 22:00 20,2 C 60 % 1016 hPa 0,0 l/m 0,4 km/h (0 Bft) W-SW 250 0 min 124 lux 0,00 min 12,2 C 20,2 C
16.07.2010 22:15 20,0 C 63 % 1016 hPa 0,0 l/m 11,0 km/h (2 Bft) SW22.5 230 0 min 9 lux 0,00 min 12,7 C 18,3 C
16.07.2010 22:30 19,2 C 71 % 1017 hPa 0,9 l/m 22,2 km/h (4 Bft) W-SW45 245 0 min 3 lux 15,00 min 13,8 C 14,8 C
16.07.2010 22:45 18,3 C 77 % 1017 hPa 0,6 l/m 35,9 km/h (5 Bft) W45 265 0 min 0 lux 15,00 min 14,2 C 11,6 C
16.07.2010 23:00 17,1 C 76 % 1019 hPa 3,0 l/m 34,5 km/h (5 Bft) W67.5 260 0 min 0 lux 15,00 min 12,8 C 10,0 C
16.07.2010 23:15 16,2 C 79 % 1017 hPa 0,0 l/m 17,1 km/h (3 Bft) W22.5 260 0 min 0 lux 0,00 min 12,6 C 12,0 C
16.07.2010 23:30 15,9 C 80 % 1017 hPa 0,0 l/m 7,8 km/h (2 Bft) S22.5 190 0 min 0 lux 0,00 min 12,5 C 15,1 C
16.07.2010 23:45 15,5 C 80 % 1017 hPa 0,0 l/m 6,5 km/h (2 Bft) S-SW22.5 195 0 min 0 lux 0,00 min 12,1 C 15,5 C
_ Min-Zeit 05:15 14:30 00:15 - 00:15 - - - - - 04:30 05:15
Minimum _ 6,2 C 41 % 1015 hPa - 0,0 km/h (0 Bft) - - - - - 4,2 C 6,2 C
_ Max-Zeit 16:45 06:15 23:00 23:00 12:30 - - 10:00 16:30 22:30 22:45 16:45
Maximum _ 27,2 C 90 % 1019 hPa 3,0 l/m 40,4 km/h
W-SW (6 Bft)
- - 16 min 88,4 klux 15,00 min 14,2 C 24,8 C
Durchschnitt _ 18,4 C 62 % 1015 hPa #4,5 l/m 18,0 km/h (3 Bft) SW - #9:15 h 36,5 klux #45 min. 10,2 C 16,1 C